Weather History for KHHF - November, 2013

Change the Weather History Date:

Friday, November 8, 2013

  Actual Average (KPPA) Record (KPPA)
Temperature  
Mean Temperature 56 °F -  
Max Temperature 70 °F 62 °F 81 °F (1980)
Min Temperature 43 °F 37 °F 21 °F (1991)
Degree Days  
Heating Degree Days 8    
Growing Degree Days 6 (Base 50)    
Moisture  
Dew Point 25 °F    
Average Humidity 34    
Maximum Humidity 75    
Minimum Humidity 12    
Precipitation  
Precipitation 0.00 in - - ()
Sea Level Pressure  
Sea Level Pressure 30.04 in    
Wind  
Wind Speed 16 mph (SSW)    
Max Wind Speed 33 mph    
Max Gust Speed 43 mph    
Visibility 10 miles    
Events      
Averages and records for this station are not official NWS values.
T = Trace of Precipitation, MM = Missing Value Source: NWS Daily Summary

Daily Weather History Graph

Daily Weather History Graph

Search for Another Location

Airport or City:

Trip Planner

Search our weather history database for the weather conditions in past years. The results will help you decide how hot, cold, wet, or windy it might be!

Date:

Astronomy

Nov. 08, 2013 Rise Set
Actual Time 7:11 AM CST 5:39 PM CST
Civil Twilight 6:44 AM CST 6:06 PM CST
Nautical Twilight 6:13 AM CST 6:36 PM CST
Astronomical Twilight 5:43 AM CST 7:06 PM CST
Moon 12:08 PM CST (11/8) 11:01 PM CST (11/8)
Length of Visible Light 11h 21m
Length of Day
10h 28m
Waxing Crescent, 33% of the Moon is Illuminated
Nov 8
Waxing Crescent
Nov 9
First Quarter
Nov 17
Full
Nov 25
Last Quarter
Dec 2
New

Hourly Weather History & Observations

Time (CST) Temp. Windchill Dew Point Humidity Pressure Visibility Wind Dir Wind Speed Gust Speed Precip Events Conditions
12:15 AM 50.0 °F - 23.9 °F 36% 30.26 in 10.0 mi SSW 15.0 mph - N/A   Clear
12:35 AM 49.6 °F - 24.8 °F 38% 30.26 in 10.0 mi SSW 12.7 mph - N/A   Clear
12:55 AM 48.6 °F - 24.6 °F 39% 30.24 in 10.0 mi SSW 9.2 mph - N/A   Clear
1:15 AM 48.2 °F - 24.6 °F 40% 30.24 in 10.0 mi SSW 6.9 mph - N/A   Clear
1:35 AM 48.0 °F - 24.6 °F 40% 30.24 in 10.0 mi SSW 10.4 mph - N/A   Clear
1:55 AM 47.3 °F - 24.3 °F 40% 30.22 in 10.0 mi SSW 11.5 mph - N/A   Clear
2:15 AM 45.0 °F 40.6 °F 25.0 °F 46% 30.22 in 10.0 mi WSW 8.1 mph - N/A   Clear
2:35 AM 43.2 °F 38.4 °F 25.3 °F 49% 30.22 in 10.0 mi WSW 8.1 mph - N/A   Clear
2:55 AM 43.3 °F 39.9 °F 24.8 °F 48% 30.21 in 10.0 mi WSW 5.8 mph - N/A   Clear
3:15 AM 44.6 °F 42.2 °F 23.9 °F 44% 30.20 in 10.0 mi West 4.6 mph - N/A   Clear
3:35 AM 44.1 °F 42.5 °F 23.9 °F 45% 30.20 in 10.0 mi SW 3.5 mph - N/A   Clear
3:55 AM 44.2 °F - 23.5 °F 44% 30.19 in 10.0 mi Calm Calm - N/A   Clear
4:15 AM 44.8 °F 40.4 °F 23.4 °F 43% 30.19 in 10.0 mi SW 8.1 mph - N/A   Clear
4:35 AM 44.2 °F 38.8 °F 22.8 °F 43% 30.18 in 10.0 mi SW 10.4 mph - N/A   Clear
4:55 AM 45.9 °F 41.2 °F 22.1 °F 39% 30.17 in 10.0 mi SW 9.2 mph - N/A   Clear
5:15 AM 45.3 °F 40.1 °F 22.1 °F 40% 30.16 in 10.0 mi SW 10.4 mph - N/A   Clear
5:35 AM 45.0 °F 39.3 °F 21.9 °F 40% 30.16 in 10.0 mi SW 11.5 mph - N/A   Clear
5:55 AM 45.1 °F 38.8 °F 22.1 °F 40% 30.15 in 10.0 mi SW 13.8 mph - N/A   Clear
6:15 AM 45.1 °F 39.1 °F 22.1 °F 40% 30.14 in 10.0 mi SW 12.7 mph 19.6 mph N/A   Clear
6:35 AM 45.5 °F 39.9 °F 22.5 °F 40% 30.15 in 10.0 mi SW 11.5 mph - N/A   Clear
6:55 AM 45.0 °F 39.3 °F 22.6 °F 41% 30.14 in 10.0 mi SW 11.5 mph 17.3 mph N/A   Clear
7:15 AM 46.6 °F - 22.5 °F 39% 30.14 in 10.0 mi SW 15.0 mph 20.7 mph N/A   Clear
7:35 AM 47.5 °F - 22.1 °F 37% 30.13 in 10.0 mi SW 16.1 mph 23.0 mph N/A   Clear
7:55 AM 49.1 °F - 21.7 °F 34% 30.13 in 10.0 mi SW 17.3 mph 26.5 mph N/A   Clear
8:15 AM 50.4 °F - 21.2 °F 32% 30.13 in 10.0 mi SW 20.7 mph 28.8 mph N/A   Clear
8:35 AM 52.2 °F - 21.0 °F 30% 30.12 in 10.0 mi SSW 25.3 mph 34.5 mph N/A   Clear
8:55 AM 54.1 °F - 20.3 °F 27% 30.12 in 10.0 mi SSW 19.6 mph 33.4 mph N/A   Clear
9:15 AM 55.6 °F - 20.1 °F 25% 30.11 in 10.0 mi SSW 24.2 mph 31.1 mph N/A   Clear
9:35 AM 57.6 °F - 19.0 °F 22% 30.10 in 10.0 mi SSW 24.2 mph 36.8 mph N/A   Clear
9:55 AM 59.0 °F - 17.1 °F 20% 30.09 in 10.0 mi SSW 28.8 mph 38.0 mph N/A   Clear
10:15 AM 61.0 °F - 16.5 °F 18% 30.08 in 10.0 mi SSW 26.5 mph 35.7 mph N/A   Clear
10:35 AM 63.3 °F - 14.2 °F 15% 30.07 in 10.0 mi SSW 31.1 mph 40.3 mph N/A   Clear
10:55 AM 64.8 °F - 13.1 °F 13% 30.06 in 10.0 mi SSW 27.6 mph 42.6 mph N/A   Clear
11:15 AM 65.3 °F - 14.4 °F 14% 30.05 in 10.0 mi SSW 28.8 mph 39.1 mph N/A   Clear
11:35 AM 66.4 °F - 14.5 °F 14% 30.03 in 10.0 mi SW 27.6 mph 40.3 mph N/A   Clear
11:55 AM 67.8 °F - 15.6 °F 13% 30.02 in 10.0 mi SSW 27.6 mph 38.0 mph N/A   Clear
12:15 PM 69.1 °F - 14.7 °F 12% 30.00 in 10.0 mi SSW 29.9 mph 41.4 mph N/A   Clear
12:35 PM 69.4 °F - 15.6 °F 13% 29.99 in 10.0 mi SSW 29.9 mph 42.6 mph N/A   Clear
12:55 PM 70.0 °F - 15.8 °F 13% 29.98 in 10.0 mi SSW 29.9 mph 41.4 mph N/A   Clear
1:15 PM 70.3 °F - 17.4 °F 13% 29.96 in 10.0 mi SSW 33.4 mph 41.4 mph N/A   Clear
1:35 PM 70.0 °F - 18.7 °F 14% 29.95 in 10.0 mi SSW 31.1 mph 41.4 mph N/A   Clear
1:55 PM 70.0 °F - 19.2 °F 15% 29.94 in 10.0 mi SSW 32.2 mph 41.4 mph N/A   Clear
2:15 PM 70.2 °F - 20.7 °F 15% 29.93 in 10.0 mi SSW 31.1 mph 41.4 mph N/A   Clear
2:35 PM 70.7 °F - 21.9 °F 16% 29.94 in 10.0 mi SSW 29.9 mph 35.7 mph N/A   Clear
2:55 PM 70.7 °F - 23.0 °F 17% 29.93 in 10.0 mi SSW 28.8 mph 36.8 mph N/A   Clear
3:15 PM 70.0 °F - 23.7 °F 18% 29.92 in 10.0 mi SSW 27.6 mph 38.0 mph N/A   Clear
3:35 PM 70.0 °F - 24.8 °F 18% 29.91 in 10.0 mi SSW 25.3 mph 34.5 mph N/A   Clear
3:55 PM 70.0 °F - 25.3 °F 19% 29.91 in 10.0 mi SSW 27.6 mph 36.8 mph N/A   Clear
4:15 PM 70.0 °F - 25.9 °F 19% 29.91 in 10.0 mi SSW 20.7 mph 32.2 mph N/A   Clear
4:35 PM 68.9 °F - 27.5 °F 21% 29.91 in 10.0 mi SSW 23.0 mph 32.2 mph N/A   Clear
4:55 PM 67.1 °F - 27.7 °F 23% 29.91 in 10.0 mi SSW 23.0 mph 32.2 mph N/A   Clear
5:15 PM 64.8 °F - 28.2 °F 25% 29.90 in 10.0 mi South 21.9 mph 29.9 mph N/A   Clear
5:35 PM 63.5 °F - 28.0 °F 26% 29.90 in 10.0 mi SSW 18.4 mph 27.6 mph N/A   Clear
5:55 PM 61.9 °F - 28.8 °F 29% 29.90 in 10.0 mi South 16.1 mph 21.9 mph N/A   Clear
6:15 PM 61.0 °F - 29.3 °F 30% 29.90 in 10.0 mi South 19.6 mph 25.3 mph N/A   Clear
6:35 PM 60.3 °F - 30.9 °F 33% 29.91 in 10.0 mi South 17.3 mph 29.9 mph N/A   Clear
6:55 PM 59.5 °F - 31.6 °F 35% 29.91 in 10.0 mi South 20.7 mph 25.3 mph N/A   Clear
7:15 PM 58.5 °F - 31.6 °F 36% 29.92 in 10.0 mi SSW 15.0 mph 24.2 mph N/A   Clear
7:35 PM 57.6 °F - 31.6 °F 37% 29.94 in 10.0 mi South 13.8 mph 19.6 mph N/A   Clear
7:55 PM 57.2 °F - 32.0 °F 38% 29.93 in 10.0 mi South 16.1 mph 21.9 mph N/A   Clear
8:15 PM 56.8 °F - 32.4 °F 40% 29.92 in 10.0 mi SSW 18.4 mph 24.2 mph N/A   Clear
8:35 PM 56.3 °F - 32.5 °F 41% 29.91 in 10.0 mi South 20.7 mph 28.8 mph N/A   Clear
8:55 PM 55.6 °F - 34.0 °F 44% 29.92 in 10.0 mi SSW 18.4 mph 28.8 mph N/A   Clear
9:15 PM 54.9 °F - 35.1 °F 47% 29.92 in 10.0 mi SSW 18.4 mph 24.2 mph N/A   Clear
9:35 PM 53.8 °F - 35.6 °F 50% 29.92 in 10.0 mi SSW 19.6 mph 25.3 mph N/A   Clear
9:55 PM 53.1 °F - 37.2 °F 55% 29.93 in 10.0 mi SSW 16.1 mph 24.2 mph N/A   Clear
10:15 PM 52.3 °F - 38.5 °F 59% 29.94 in 10.0 mi SSW 13.8 mph 19.6 mph N/A   Clear
10:35 PM 51.8 °F - 39.4 °F 63% 29.94 in 10.0 mi SSW 13.8 mph 20.7 mph N/A   Clear
10:55 PM 51.3 °F - 40.3 °F 66% 29.94 in 10.0 mi SW 10.4 mph - N/A   Clear
11:15 PM 50.9 °F - 41.0 °F 69% 29.94 in 10.0 mi SSW 11.5 mph - N/A   Clear
11:35 PM 50.0 °F - 41.7 °F 73% 29.94 in 10.0 mi SSW 10.4 mph - N/A   Clear
11:55 PM 50.0 °F - 42.3 °F 75% 29.94 in 10.0 mi SSW 9.2 mph - N/A   Clear